Weather History for LFQQ - October, 2011

Change the Weather History Date:

Tuesday, October 4, 2011

  Actual Average Record
Temperature  
Mean Temperature 64 °F -  
Max Temperature 69 °F 57 °F 72 °F (2014)
Min Temperature 60 °F 45 °F 37 °F (2008)
Growing Degree Days 14 (Base 50)    
Moisture  
Dew Point 56 °F    
Average Humidity 77    
Maximum Humidity 94    
Minimum Humidity 57    
Precipitation  
Precipitation 0.01 in - - ()
Sea Level Pressure  
Sea Level Pressure 30.16 in    
Wind  
Wind Speed 11 mph ()    
Max Wind Speed 20 mph    
Max Gust Speed -    
Visibility 6.6 miles    
Events      
Averages and records for this station are not official NWS values.
T = Trace of Precipitation, MM = Missing Value Source: Averaged Metar Reports

Daily Weather History Graph

Daily Weather History Graph

Search for Another Location

Airport or City:

Trip Planner

Search our weather history database for the weather conditions in past years. The results will help you decide how hot, cold, wet, or windy it might be!

Date:

Astronomy

Oct. 04, 2011 Rise Set
Actual Time 7:51 AM CEST 7:20 PM CEST
Civil Twilight 7:19 AM CEST 7:52 PM CEST
Nautical Twilight 6:41 AM CEST 8:30 PM CEST
Astronomical Twilight 6:02 AM CEST 9:09 PM CEST
Moon 3:51 PM CEST (10/4) No Moon Set
Length of Visible Light 12h 33m
Length of Day
11h 28m
First Quarter, 53% of the Moon is Illuminated
Oct 4
First Quarter
Oct 12
Full
Oct 20
Last Quarter
Oct 26
New
Nov 2
First Quarter

Hourly Weather History & Observations

Time (CEST) Temp. Dew Point Humidity Pressure Visibility Wind Dir Wind Speed Gust Speed Precip Events Conditions
12:00 AM 66.2 °F 51.8 °F 60% 30.12 in - WSW 9.2 mph - N/A   Clear
1:00 AM 62.6 °F 51.8 °F 68% 30.12 in - SW 5.8 mph - N/A   Clear
2:00 AM 62 °F 51 °F 57% 30.13 in 16 mi SSW 6.9 mph - -  
2:00 AM 62.6 °F 50.0 °F 63% 30.12 in - SW 6.9 mph - N/A   Clear
2:30 AM 60.8 °F 50.0 °F 68% 30.12 in 6.2 mi SW 6.9 mph - N/A   Unknown
3:00 AM 60.8 °F 51.8 °F 72% 30.12 in 6.2 mi West 9.2 mph - N/A   Unknown
3:30 AM 60.8 °F 57.2 °F 88% 30.12 in 4.3 mi West 12.7 mph - N/A   Partly Cloudy
4:00 AM 60.8 °F 59.0 °F 94% 30.12 in 4.3 mi WSW 8.1 mph - N/A   Overcast
4:30 AM 60.8 °F 59.0 °F 94% 30.09 in 4.3 mi SW 6.9 mph - N/A   Overcast
5:00 AM 60.8 °F 59.0 °F 94% 30.12 in 3.7 mi SSW 5.8 mph - N/A   Overcast
5:30 AM 62.6 °F 59.0 °F 88% 30.12 in 5.0 mi WSW 8.1 mph - N/A   Overcast
6:00 AM 62.6 °F 59.0 °F 88% 30.12 in 6.2 mi West 10.4 mph - N/A   Overcast
6:30 AM 62.6 °F 59.0 °F 88% 30.12 in 6.2 mi West 11.5 mph - N/A   Overcast
7:00 AM 62.6 °F 59.0 °F 88% 30.12 in 6.2 mi West 10.4 mph - N/A   Overcast
7:30 AM 62.6 °F 59.0 °F 88% 30.12 in 6.2 mi West 11.5 mph - N/A   Overcast
8:00 AM 63 °F 57 °F 76% 30.15 in 7 mi West 13.8 mph - -   Partly Cloudy
8:00 AM 62.6 °F 57.2 °F 82% 30.12 in 6.2 mi West 15.0 mph - N/A   Overcast
8:30 AM 62.6 °F 57.2 °F 82% 30.15 in 6.2 mi West 18.4 mph - N/A   Overcast
9:00 AM 62.6 °F 57.2 °F 82% 30.15 in 6.2 mi West 13.8 mph - N/A   Overcast
9:30 AM 62.6 °F 57.2 °F 82% 30.15 in 6.2 mi West 11.5 mph - N/A   Overcast
10:00 AM 62.6 °F 57.2 °F 82% 30.15 in 6.2 mi West 13.8 mph - N/A   Overcast
10:30 AM 62.6 °F 59.0 °F 88% 30.15 in 6.2 mi West 13.8 mph - N/A   Overcast
11:00 AM 62.6 °F 59.0 °F 88% 30.18 in 6.2 mi West 13.8 mph - N/A   Overcast
11:30 AM 62.6 °F 57.2 °F 82% 30.18 in 6.2 mi West 18.4 mph - N/A   Mostly Cloudy
12:00 PM 66.2 °F 55.4 °F 68% 30.18 in 6.2 mi West 18.4 mph - N/A   Mostly Cloudy
12:30 PM 66.2 °F 57.2 °F 73% 30.18 in 6.2 mi West 18.4 mph - N/A   Scattered Clouds
1:00 PM 68.0 °F 55.4 °F 64% 30.18 in 6.2 mi West 18.4 mph - N/A   Mostly Cloudy
1:30 PM 66.2 °F 55.4 °F 68% 30.18 in 6.2 mi West 16.1 mph - N/A   Mostly Cloudy
2:00 PM 66 °F 55 °F 60% 30.19 in 12 mi WSW 13.8 mph - -   Mostly Cloudy
2:00 PM 66.2 °F 55.4 °F 68% 30.18 in 6.2 mi WSW 15.0 mph - N/A   Mostly Cloudy
2:30 PM 66.2 °F 55.4 °F 68% 30.18 in 6.2 mi West 13.8 mph - N/A   Mostly Cloudy
3:00 PM 66.2 °F 55.4 °F 68% 30.18 in 6.2 mi West 12.7 mph - N/A   Mostly Cloudy
3:30 PM 68.0 °F 55.4 °F 64% 30.18 in 6.2 mi West 15.0 mph - N/A   Mostly Cloudy
4:00 PM 68.0 °F 53.6 °F 60% 30.18 in 6.2 mi West 19.6 mph - N/A   Mostly Cloudy
4:30 PM 69.8 °F 55.4 °F 60% 30.15 in 6.2 mi West 17.3 mph - N/A   Mostly Cloudy
5:00 PM 68.0 °F 55.4 °F 64% 30.15 in 6.2 mi West 19.6 mph - N/A   Mostly Cloudy
5:30 PM 66.2 °F 57.2 °F 73% 30.18 in 6.2 mi West 15.0 mph - N/A   Overcast
6:00 PM 66.2 °F 57.2 °F 73% 30.18 in 6.2 mi West 18.4 mph - N/A   Overcast
6:30 PM 64.4 °F 57.2 °F 77% 30.18 in 6.2 mi West 16.1 mph - N/A   Overcast
7:00 PM 64.4 °F 57.2 °F 77% 30.18 in 6.2 mi West 18.4 mph - N/A   Overcast
7:30 PM 64.4 °F 57.2 °F 77% 30.18 in 6.2 mi West 17.3 mph - N/A   Mostly Cloudy
8:00 PM 63 °F 56 °F 72% 30.20 in 19 mi West 13.8 mph - -   Mostly Cloudy
8:00 PM 62.6 °F 57.2 °F 82% 30.18 in 6.2 mi West 15.0 mph - N/A   Mostly Cloudy
8:30 PM 62.6 °F 57.2 °F 82% 30.18 in 6.2 mi WSW 11.5 mph - N/A   Mostly Cloudy
9:00 PM 62.6 °F 57.2 °F 82% 30.18 in 6.2 mi West 12.7 mph - N/A   Mostly Cloudy
9:30 PM 62.6 °F 57.2 °F 82% 30.21 in 6.2 mi WSW 12.7 mph - N/A   Mostly Cloudy
10:00 PM 62.6 °F 57.2 °F 82% 30.21 in 6.2 mi West 12.7 mph - N/A   Mostly Cloudy
10:30 PM 62.6 °F 59.0 °F 88% 30.18 in 6.2 mi WSW 10.4 mph - N/A   Mostly Cloudy
11:00 PM 62.6 °F 59.0 °F 88% 30.21 in 6.2 mi WSW 12.7 mph - N/A   Mostly Cloudy